Weather History for KCEF - February, 2014

Change the Weather History Date:

Sunday, February 9, 2014

  Actual Average Record
Temperature  
Mean Temperature 22 °F -  
Max Temperature 27 °F 34 °F 48 °F (2005)
Min Temperature 16 °F 17 °F 3 °F (2003)
Degree Days  
Heating Degree Days 44    
Moisture  
Dew Point 15 °F    
Average Humidity 78    
Maximum Humidity 100    
Minimum Humidity 45    
Precipitation  
Precipitation 0.01 in - - ()
Sea Level Pressure  
Sea Level Pressure 30.04 in    
Wind  
Wind Speed 6 mph (SW)    
Max Wind Speed 12 mph    
Max Gust Speed -    
Visibility 7 miles    
Events Snow    
Averages and records for this station are not official NWS values.
T = Trace of Precipitation, MM = Missing Value Source: NWS Daily Summary

Daily Weather History Graph

Daily Weather History Graph

Search for Another Location

Airport or City:

Trip Planner

Search our weather history database for the weather conditions in past years. The results will help you decide how hot, cold, wet, or windy it might be!

Date:

Astronomy

Feb. 09, 2014 Rise Set
Actual Time 6:54 AM EST 5:15 PM EST
Civil Twilight 6:25 AM EST 5:44 PM EST
Nautical Twilight 5:52 AM EST 6:17 PM EST
Astronomical Twilight 5:19 AM EST 6:49 PM EST
Moon 12:50 PM EST (2/9) 2:58 AM EST (2/9)
Length of Visible Light 11h 19m
Length of Day
10h 20m
Waxing Gibbous, 77% of the Moon is Illuminated
Feb 9
Waxing Gibbous
Feb 14
Full
Feb 22
Last Quarter
Mar 1
New
Mar 8
First Quarter

Hourly Weather History & Observations

Time (EST) Temp. Windchill Dew Point Humidity Pressure Visibility Wind Dir Wind Speed Gust Speed Precip Events Conditions
12:58 AM 20.7 °F 14.2 °F 2.1 °F 45% 30.15 in 10.0 mi NW 4.6 mph - N/A   Overcast
1:58 AM 19.4 °F - 3.7 °F 51% 30.17 in 10.0 mi WNW 2.3 mph - N/A   Overcast
2:58 AM 18.9 °F 13.7 °F 4.6 °F 54% 30.17 in 10.0 mi NW 3.5 mph - N/A   Overcast
3:58 AM 17.4 °F - 6.8 °F 63% 30.15 in 10.0 mi North 1.2 mph - N/A   Overcast
4:58 AM 17.1 °F 7.6 °F 7.0 °F 65% 30.17 in 10.0 mi NW 6.9 mph - N/A   Overcast
5:58 AM 16.0 °F 8.8 °F 5.7 °F 64% 30.17 in 10.0 mi North 4.6 mph - N/A   Overcast
6:17 AM 19.4 °F 9.5 °F 5.0 °F 54% 30.15 in 10.0 mi North 8.1 mph - N/A   Overcast
6:29 AM 19.4 °F 11.5 °F 6.8 °F 58% 30.15 in 10.0 mi North 5.8 mph - N/A   Overcast
6:30 AM 19.4 °F 11.5 °F 6.8 °F 58% 30.15 in 10.0 mi North 5.8 mph - N/A   Overcast
6:33 AM 19.4 °F 10.4 °F 6.8 °F 58% 30.15 in 10.0 mi North 6.9 mph - N/A   Overcast
6:34 AM 19.4 °F 10.4 °F 6.8 °F 58% 30.15 in 10.0 mi North 6.9 mph - N/A   Overcast
6:53 AM 17.6 °F 9.3 °F 6.8 °F 63% 30.16 in 10.0 mi NNW 5.8 mph - N/A   Overcast
6:57 AM 17.6 °F 9.3 °F 6.8 °F 63% 30.16 in 10.0 mi NNW 5.8 mph - N/A   Overcast
6:58 AM 18.3 °F 10.2 °F 7.0 °F 61% 30.19 in 10.0 mi North 5.8 mph - N/A   Overcast
7:20 AM 17.6 °F 8.2 °F 6.8 °F 63% 30.16 in 10.0 mi North 6.9 mph - N/A   Overcast
7:58 AM 18.0 °F 11.1 °F 5.9 °F 59% 30.19 in 10.0 mi North 4.6 mph - N/A   Overcast
8:58 AM 19.9 °F 10.1 °F 6.3 °F 55% 30.18 in 10.0 mi NNW 8.1 mph - N/A   Clear
9:58 AM 21.6 °F - 6.8 °F 53% 30.17 in 10.0 mi NW 2.3 mph - N/A   Clear
10:58 AM 23.7 °F 17.8 °F 8.2 °F 52% 30.16 in 10.0 mi WNW 4.6 mph - N/A   Clear
11:58 AM 25.3 °F 21.1 °F 9.0 °F 50% 30.12 in 10.0 mi WNW 3.5 mph - N/A   Clear
12:58 PM 27.1 °F - 9.0 °F 46% 30.10 in 10.0 mi WSW 2.3 mph - N/A   Clear
1:58 PM 27.3 °F 20.9 °F 10.0 °F 48% 30.06 in 10.0 mi WSW 5.8 mph - N/A   Partly Cloudy
2:58 PM 27.1 °F 19.7 °F 9.1 °F 47% 30.03 in 10.0 mi South 6.9 mph - N/A   Partly Cloudy
3:58 PM 27.3 °F 20.9 °F 9.9 °F 48% 30.01 in 10.0 mi South 5.8 mph - N/A   Mostly Cloudy
4:58 PM 26.8 °F 18.5 °F 11.3 °F 52% 30.03 in 10.0 mi SSW 8.1 mph - N/A   Overcast
5:58 PM 26.6 °F 21.2 °F 11.1 °F 52% 30.02 in 10.0 mi South 4.6 mph - N/A   Partly Cloudy
6:58 PM 25.9 °F 21.7 °F 12.6 °F 57% 30.02 in 10.0 mi SSE 3.5 mph - N/A   Overcast
7:39 PM 26.6 °F 16.8 °F 14.0 °F 59% 29.97 in 10.0 mi South 10.4 mph - N/A Snow Light Snow
7:52 PM 24.8 °F 14.0 °F 15.8 °F 69% 29.97 in 9.0 mi SSW 11.5 mph - N/A Snow Light Snow
7:58 PM 25.5 °F 14.9 °F 16.7 °F 69% 30.00 in 8.0 mi South 11.5 mph - 0.00 in Snow Light Snow
8:23 PM 23.0 °F 14.7 °F 23.0 °F 100% 29.97 in 4.0 mi South 6.9 mph - N/A Snow Light Snow
8:40 PM 23.0 °F 17.0 °F 23.0 °F 100% 29.97 in 4.0 mi SSW 4.6 mph - N/A Snow Light Snow
8:48 PM 23.0 °F 15.8 °F 23.0 °F 100% 29.97 in 3.0 mi SSW 5.8 mph - N/A Snow Light Snow
8:49 PM 23.0 °F 14.7 °F 23.0 °F 100% 29.97 in 2.5 mi SW 6.9 mph - N/A Snow Light Snow
8:54 PM 23.0 °F 15.8 °F 23.0 °F 100% 29.97 in 2.0 mi SSW 5.8 mph - N/A Snow Light Snow
8:58 PM 23.5 °F 16.4 °F 23.0 °F 98% 30.00 in 2.0 mi SSW 5.8 mph - 0.00 in Snow Light Snow
9:01 PM 23.0 °F 15.8 °F 23.0 °F 100% 29.97 in 2.5 mi SSW 5.8 mph - N/A Snow Light Snow
9:02 PM 23.0 °F 15.8 °F 23.0 °F 100% 29.97 in 2.5 mi SSW 5.8 mph - N/A Snow Light Snow
9:03 PM 23.0 °F 15.8 °F 23.0 °F 100% 29.97 in 2.5 mi SSW 5.8 mph - N/A Snow Light Snow
9:04 PM 23.0 °F 13.9 °F 23.0 °F 100% 29.97 in 2.5 mi SSW 8.1 mph - N/A Snow Light Snow
9:06 PM 23.0 °F 14.7 °F 23.0 °F 100% 29.97 in 3.0 mi SSW 6.9 mph - N/A Snow Light Snow
9:08 PM 23.0 °F 15.8 °F 23.0 °F 100% 29.97 in 3.0 mi SSW 5.8 mph - N/A Snow Light Snow
9:18 PM 23.0 °F 13.9 °F 23.0 °F 100% 29.97 in 2.5 mi South 8.1 mph - N/A Snow Light Snow
9:20 PM 23.0 °F 13.9 °F 23.0 °F 100% 29.97 in 2.5 mi SSW 8.1 mph - N/A Snow Light Snow
9:42 PM 23.0 °F 15.8 °F 23.0 °F 100% 29.96 in 2.5 mi South 5.8 mph - N/A Snow Light Snow
9:47 PM 23.0 °F 13.9 °F 23.0 °F 100% 29.96 in 3.0 mi South 8.1 mph - N/A Snow Light Snow
9:51 PM 23.0 °F 14.7 °F 23.0 °F 100% 29.96 in 2.5 mi South 6.9 mph - N/A Snow Light Snow
9:53 PM 23.0 °F 14.7 °F 23.0 °F 100% 29.96 in 2.5 mi South 6.9 mph - N/A Snow Light Snow
9:55 PM 23.0 °F 15.8 °F 23.0 °F 100% 29.96 in 2.0 mi South 5.8 mph - N/A Snow Light Snow
9:58 PM 23.0 °F 13.9 °F 22.5 °F 98% 29.99 in 2.0 mi South 8.1 mph - 0.00 in Snow Light Snow
10:00 PM 23.0 °F 13.9 °F 23.0 °F 100% 29.96 in 1.8 mi South 8.1 mph - N/A Snow Light Snow
10:07 PM 23.0 °F 13.9 °F 23.0 °F 100% 29.96 in 2.0 mi South 8.1 mph - N/A Snow Light Snow
10:14 PM 23.0 °F 13.9 °F 23.0 °F 100% 29.96 in 2.5 mi South 8.1 mph - N/A Snow Light Snow
10:22 PM 23.0 °F 13.9 °F 23.0 °F 100% 29.96 in 3.0 mi South 8.1 mph - N/A Snow Light Snow
10:30 PM 23.0 °F 13.1 °F 23.0 °F 100% 29.95 in 4.0 mi South 9.2 mph - N/A Snow Light Snow
10:58 PM 22.6 °F 13.4 °F 22.1 °F 98% 29.97 in 5.0 mi South 8.1 mph - 0.01 in Snow Light Snow
11:06 PM 23.0 °F 13.9 °F 21.2 °F 93% 29.94 in 10.0 mi South 8.1 mph - N/A Snow Light Snow
11:07 PM 23.0 °F 13.9 °F 21.2 °F 93% 29.94 in 10.0 mi South 8.1 mph - N/A   Overcast
11:09 PM 23.0 °F 13.9 °F 21.2 °F 93% 29.94 in 10.0 mi South 8.1 mph - N/A   Overcast
11:58 PM 21.0 °F 12.4 °F 20.5 °F 98% 29.97 in 10.0 mi South 6.9 mph - 0.00 in   Overcast